Regional Weather Roundup
Issued by NWS Newport/Morehead, NC

Current Version | Previous Version | Graphics & Text | Print | Product List | Glossary Off
Versions: 1 2 3 4 5 6 7 8 9 10 11 12 13 14 15 16 17 18 19 20 21 22 23 24 25 26 27 28 29 30 31 32 33 34 35 36 37 38 39 40 41 42 43 44 45 46 47 48 49 50

000
ASUS42 KMHX 231514
RWRMHX
WEATHER ROUNDUP FOR EASTERN NORTH CAROLINA
NATIONAL WEATHER SERVICE NEWPORT/MOREHEAD CITY NC
1100 AM EDT WED AUG 23 2017

NOTE: "FAIR" INDICATES FEW OR NO CLOUDS BELOW 12,000 FEET
WITH NO SIGNIFICANT WEATHER AND/OR OBSTRUCTIONS TO VISIBILITY

NCZ015>017-031-032-045>047-102-103-231600-
NORTH COAST

CITY           SKY/WX    TMP DP  RH WIND       PRES   REMARKS
EDENTON        MOSUNNY   85  77  75 W7        29.89R
ELIZABETH CITY PTSUNNY   87  79  76 S8        29.88R HX 101
KITTY HAWK     SUNNY     85  74  68 CALM      29.88R
MANTEO         SUNNY     86  75  70 SW7       29.89S

$$

NCZ045>047-081-094-103-104-231600-
CENTRAL COAST

CITY           SKY/WX    TMP DP  RH WIND       PRES   REMARKS
FRISCO         MOSUNNY   85  78  80 SW10      29.91S

$$

NCZ095-097-098-100-101-231600-
SOUTHERN COAST

CITY           SKY/WX    TMP DP  RH WIND       PRES   REMARKS
BEAUFORT       MOSUNNY   85  78  80 SW14      29.91S
CEDAR ISLAND   NOT AVBL
JACKSONVILLE   MOSUNNY   86  77  74 SW5       29.90S
PINEY ISLAND   MOSUNNY  N/A N/A N/A SW8       29.90S
WILMINGTON     MOSUNNY   88  74  63 SW7       29.91S


$$

NCZ011>013-027>030-043-044-078>080-089-090>093-098-231600-
COASTAL PLAIN

CITY           SKY/WX    TMP DP  RH WIND       PRES   REMARKS
AHOSKIE          N/A     83  76  79 S3        29.88S
CLINTON        SUNNY     85  77  78 SW6       29.91S
ELIZABETHTOWN  NOT AVBL
GOLDSBORO      MOSUNNY   86  81  84 SW6       29.89S HX 102
GREENVILLE     SUNNY     84  77  79 SW6       29.91S
HAVELOCK       MOSUNNY   88  75  65 SW10      29.91F
KENANSVILLE    SUNNY     84  75  74 SW5       29.91S
KINSTON        SUNNY     88  73  62 W5        29.90S
NEW BERN       MOSUNNY   87  76  69 SW7       29.91S
RICHLANDS      SUNNY     88  77  69 SW7       29.91S HX 100
ROCKY MOUNT    SUNNY     86  76  71 VRB3      29.88S
WASHINGTON     SUNNY     85  76  74 W5        29.90R
WHITEVILLE     SUNNY     86  74  68 SW7       29.92S

$$

AMZ130-135-150-152-154-156-158-170-250-252-270-ANZ085-086-088-633-658-670-231600-
MARINE OBSERVATIONS

STATION/POSITION TIME  TEMP    WIND        PRES    WAVE   SWELL
                       AIR SEA DIR/SP/G            HT/PER HT/PER
                 (UTC) (F)     (DEG/KT/KT) (MB)    (FT/S) (FT/S)
CHESAPEAKE LIGHT NOT AVBL
64 E VA BEACH    1450   79 79  230/ 12/ 14 1012.0    4/ 8   3/ 8
DUCK             1448   82 66  230/  9/ 11 1011.5
2 E DUCK         1500      70                N/A     2/ 9   2/11
OREGON INLET     1442   83 83  210/ 11/ 13 1012.0
13E OREGON INLT  1448      79                N/A     3/ 9   2/ 9
HATTERAS CG      1448   84 83  230/  7/ 13 1012.7
DIAMOND BUOY     1450   83 84  240/ 16/ 17 1012.7    4/ 9   2/ 9
CAPE LOOKOUT     1500   82     230/ 10/ 13 1012.9
BEAUFORT LAB     1448   85 80  220/  8/ 12 1012.4
30 SE NEW RVR IN 1408   79 83  250/ 14/ 17 1013.2
30 SE NEW RVR IN 1443      83                N/A     5/ 9   2/11
27 SE WRIGHTSVLE 1408   80 83  220/ 14/ 19 1013.3
5 SE WRIGHTSVLE  1408   83 84  220/ 12/ 17 1013.0
225 S CAPE HAT   1450   83 84  300/  4/  6 1015.4    3/ 8   3/ 8
41 SE CHARLESTON 1500   82 84  230/  8/ 10 1014.1

$$




USA.gov is the U.S. government's official web portal to all federal, state and local government web resources and services.